Showing default

HULIANWANG DIGUI-01, 62323

Orbit data source: Space-Track

HULIANWANG DIGUI-01, 62323 is a payload satellite owned by Zhongguo Xingwang (CN) in LEO that was launched on Mon, 16 Dec 2024 UTC via a CHANG ZHENG 5B/YZ-2 launch vehicle from the Wenchang Satellite Launch Center (WSC). Payload-class satellites include a variety of spacecraft equipped with specific instruments for various scientific and technological missions. These include communications satellites like Starlink; space stations such as the ISS; scientific satellites like the Hubble; Earth observation satellites from companies like Planet Labs, Umbra, and HawkEye 360; GPS; miniature CubeSats for education and research; and military/defense satellites.

Loading next visibility...
Identifier
62323, 2024-240A
Orbit
LEO
Country
Flag of CNCN / PRC
Related business
Manufacturer
CAST?
Mission
Operational Civil Communications
Bus & Motor
GUOWANG C, Unknown motor
Mass
~800 kg wet, ~800 kg dry
Launch date (UTC)
2024-12-16 (10 months ago)
Launch vehicle
CHANG ZHENG 5B/YZ-2
Launch site
Wenchang Satellite Launch Center (WSC)
Object type
Payload
Rocket body
Debris
Shape & HBR
Box + 2 Pan, 5.0 m
Radar Cross Section
5.935 m², Large (>1 m²)

Expand to show TLE details & history
Last TLE update: 6 hours ago

TLE from 6 hours ago
0 HULIANWANG DIGUI-01
1 62323U 24240A   25290.86676454  .00000071  00000-0  13083-3 0  9998
2 62323  86.4960  64.9850 0001731 105.9076 254.2249 13.24413129 40566
Epoch: 2025-10-17T20:48Z
TLE epoch observation values (Epoch: 2025-10-17T20:48:08.456Z)
Latitude
Longitude
86.34378°
Altitude
1,171.16 km
Speed
7.268 km/s
True Right ascension
04h 19m 56s
True Declination
0° 00' 00"
Sunlit
Object was in full shadow at epoch
Visualization orbit readout
Latitude
Unknown
Longitude
Unknown
Altitude
Unknown
Speed
Unknown
Apparent Right ascension
Unknown
Apparent Declination
Unknown
Sunlit
N/A
Visualization observer readout
Local Sidereal Time
21:30:26
Azimuth
Unknown
Elevation
Unknown
Doppler factor
Unknown
Orbital elements
Apogee altitude
1,166.336 km
Perigee altitude
1,163.725 km
Semi-major axis
7,543.167 km
Eccentricity
0.00017
Inclination
86.496°
RAAN
64.985°
Arg. of periapsis
105.9076°
True anomaly
254.20581°
Mean anomaly
254.2249°
Eccentric anomaly
254.21536°
Mean motion
3.31293 °/min
Orbital period
108.67 mins
BSTAR
0.00013083
Loading maneuver chart data...
Computing Atmospheric mass density...
Loading historical data...
Loading historical data...
Loading historical data...
Loading historical data...
Loading historical data...
Loading historical data...
Loading historical data...

Documentation

Showing up to 5 results
|